Simultaneous Nadir Overpasses (SNOs) Predictions

Prediction of SNOs between GOES-16 and NPP Satellite Orbit:

Table of predicted SNOs for the next 14.0 days since TLE Epoch: 12/3/2022
Index Date Time (GOES-16) GOES-16 Lat,Lon NPP Lat,Lon Distance(km) Time Diff (sec)
1 12/03/2022 18:33:30 0.01, -75.20 -0.44, -77.13 221.06 80
2 12/04/2022 18:17:28 0.00, -75.20 0.61, -72.61 295.65 80
3 12/06/2022 06:36:37 -0.00, -75.21 0.61, -77.88 304.72 80
4 12/07/2022 06:20:35 0.00, -75.22 -0.44, -73.36 212.13 80
5 12/08/2022 18:39:53 -0.00, -75.23 -0.77, -78.67 391.48 80
6 12/09/2022 18:23:49 -0.01, -75.24 0.22, -74.13 125.69 80
7 12/11/2022 06:45:40 0.00, -75.26 0.94, -79.41 473.65 80
8 12/12/2022 06:24:16 0.01, -75.27 -0.06, -74.88 43.77 80
9 12/14/2022 18:27:32 -0.01, -75.31 -0.09, -75.67 41.05 80
10 12/15/2022 18:11:29 -0.01, -75.33 0.91, -71.14 477.02 80
